Skip Page Navigation
NASA JPL Caltech
NASA Logo - Jet Propulsion Laboratory + View the NASA Portal
+ Center for Near-Earth Object Studies
JPL Home Earth Solar System Stars & Galaxies Technology
JPL Solar System Dynamics
BODIES ORBITS EPHEMERIDES TOOLS PHYSICAL DATA DISCOVERY FAQ SITE MAP

Significant website upgrade scheduled for September 27. More details available here.

JPL Small-Body Database Browser
Search: [ help ]  
511 Davida (A903 KB)
Classification: Main-belt Asteroid          SPK-ID: 2000511
Ephemeris | Orbit Diagram | Orbital Elements | Mission Design | Physical Parameters | Discovery Circumstances | Close-Approach Data ]

[ hide orbit diagram ]

For accurate long-term ephemerides, please instead use our Horizons system.This orbit viewer was implemented using two-body methods, and hence should not be used for determining accurate long-term trajectories (over several years or decades) or planetary encounter circumstances.


Orbital Elements at Epoch 2459396.5 (2021-Jul-01.0) TDB
Reference: JPL 102 (heliocentric ecliptic J2000)
 Element Value Uncertainty (1-sigma)   Units 
e .1882331394938266 1.7191e-08  
a 3.163306763967083 4.5796e-09 au
q 2.567867600603502 5.3043e-08 au
i 15.93890706403237 2.6562e-07 deg
node 107.5906042255194 2.0927e-06 deg
peri 337.2187847186182 3.5831e-06 deg
M 113.5679307374014 5.394e-06 deg
tp 2458748.218536497663
(2019-Sep-21.71853650)
2.9888e-05 TDB
period 2054.99321283294
5.63
4.4626e-06
1.222e-08
d
yr
n .1751830603390251 3.8042e-10 deg/d
Q 3.758745927330664 5.4416e-09 au
  Orbit Determination Parameters
   # obs. used (total)      3421  
   data-arc span      43167 days (118.18 yr)  
   first obs. used      1903-06-02  
   last obs. used      2021-08-08  
   planetary ephem.      DE441  
   SB-pert. ephem.      SB441-N16  
   condition code      0  
   norm. resid. RMS      .51675  
   source      ORB  
   producer      Otto Matic  
   solution date      2021-Aug-25 06:42:17  

Additional Information
 Earth MOID = 1.59165 au 
 Jupiter MOID = 1.48003 au 
 T_jup = 3.118 
[ show covariance matrix ]

Ephemeris | Orbit Diagram | Orbital Elements | Mission Design | Physical Parameters | Discovery Circumstances | Close-Approach Data ]

Physical Parameter Table
Parameter Symbol Value Units Sigma Reference Notes
absolute magnitude H 6.43   n/a MPO636068 IRAS observations used: 22
magnitude slope G 0.16   n/a PDS3 (MPC 17259) Fit
diameter diameter 270.327 km 1.045 urn:nasa:pds:neowise_diameters_albedos::2.0[mainbelt] (http://adsabs.harvard.edu/abs/2014ApJ...791..121M)  
rotation period rot_per 5.1297 h n/a LCDB (Rev. 2020-October); Warner et al., 2009 Published Reference List:
[Groeneveld, I.; Kuiper, G.P. (1954) Astrophys. J. 120, 200-220.]
[Gehrels, T.; Owings, D. (1962) Astrophys. J. 135, 906-924.]
[Chang, Y.C.; Chang, C.-s. (1963) Acta Astron. Sin. 11, 139-149.]
[Di Martino, M.; Zappala, V.; De Campos, J.A.; Debehogne, H.; Lagerkvist, C.-I. (1987) Astron. Astrophys. Suppl. Ser. 67, 95-101.]
[Weidenschilling, S.J.; Chapman, C.R.; Davis, D.R.; Greenberg, R.; et al. (1987) Icarus 70, 191-245.]
[Drummond, J.D.; Weidenschilling, S.J.; Chapman, C.R.; Davis, D.R. (1988) Icarus 76, 19-77.]
[Magnusson, P. (1990) Icarus 85, 229-240.]
[Drummond, J.D.; Weidenschilling, S.J.; Chapman, C.R.; Davis, D.R. (1991) Icarus 89, 44-64.]
[Michalowski, T. (1993) Icarus 106, 563-572.]
[De Angelis, G. (1995) Planet. Space Sci. 43, 649-682.]
[Torppa, J.; Kaasalainen, M.; Michalowski, T.; Kwiatkowski, T.; et al. (2003) Icarus 164, 346-383.]
[Behrend, R. (2005) Observatoire de Geneve web site, http://obswww.unige.ch/~behrend/page_cou.html]
[Marchis, F.; Kaasalainen, M.; Hom, E.F.Y.; Berthier, J.; et al. (2006) Icarus 185, 39-63.]
[Alton, K.B. (2009) Minor Planet Bull. 36, 144-145.]
[Behrend, R. (2010) Observatoire de Geneve web site, http://obswww.unige.ch/~behrend/page_cou.html]
[Garlitz, J. (2013) Posting on CALL web site. http://www.minorplanet.info/call.html]
[Behrend, R. (2015) Observatoire de Geneve web site, http://obswww.unige.ch/~behrend/page_cou.html]
[Hanus, J.; Durech, J.; Oszkiewicz, D.A.; Behrend, R.; et al. (2016) Astron. Astrophys. 586, A108.]
[Viikinkoski, M.; Hanus, J.; Kaasalainen, M.; Marchis, F.; Durech, J. (2017) Astron. Astrophys. 607, A117.]
[Cellino, A.; Hestroffer, D.; Lu, X.-P.; Muinonen, K.; Tanga, P. (2019) Astron. Astrophys. 631, A67.]
geometric albedo albedo 0.076   0.007 urn:nasa:pds:neowise_diameters_albedos::2.0[mainbelt] (http://adsabs.harvard.edu/abs/2014ApJ...791..121M)  
B-V BV 0.717   0.013 EAR-A-5-DDR-UBV-MEAN-VALUES-V1.2 #obs=23; phase (min.=1.78, mean=10.93, max.=20.90) deg.
U-B UB 0.363   0.020 EAR-A-5-DDR-UBV-MEAN-VALUES-V1.2 #obs=11; phase (min.=1.53, mean=8.22, max.=17.13) deg.
Tholen spectral type spec_T C   n/a EAR-A-5-DDR-TAXONOMY-V4.0 used 7 color indices; used ground-based radiometric albedo
SMASSII spectral type spec_B C   n/a EAR-A-5-DDR-TAXONOMY-V4.0 based on a high-resolution spectrum by Xu et al. (1995) or Bus and Binzel (2002)

511 Davida (A903 KB)          Discovered 1903-May-30 by Dugan, R. S. at Heidelberg
Reference: DISCOVERY.DBLast Updated: 2003-08-29

[ show close-approach data ]
Ephemeris | Orbit Diagram | Orbital Elements | Mission Design | Physical Parameters | Discovery Circumstances | Close-Approach Data ]
ABOUT SSD CREDITS/AWARDS PRIVACY/COPYRIGHT GLOSSARY LINKS
FirstGov 2021-Sep-23 02:32 UT
(server date/time)  
NASA Home Page
Site Manager:   Ryan S. Park
Webmaster  Alan B. Chamberlin